PALAPA D

Last updated on Nov. 15, 2019, 4:20 a.m. UTC

1 35812U 09046A   19318.53798566 -.00000344  00000-0  00000+0 0  9990
2 35812   0.0140  71.3151 0002291 191.7266  96.9322  1.00270262 37540
UTC
Height (km)
Latitude
Longitude
Inclination
Orbital Period
UTC large
Height (km)
Speed (km/s)
/
Latitude / Longitude
Inclination (degrees)
Orbital Period (minutes)
Azimuth
Elevation
Range (km)
Doppler Factor
iOS Compass Heading
iOS Angle

Next 30 passes for location: Hong Kong

Rise time Rise Azimuth (degrees) Set time Set Azimuth (degrees) Duration Max altitude (degrees)

No matching passes for this satellites